Powrót do katalogu

STARLINK-11472

AktywnyŁącznośćVLEO
NORAD 62067·PAYLOAD·🇺🇸 United States

Wystrzelony Nov 24, 2024 z Vandenberg Space Force Base

Loading…

Następne Przeloty (najbliższe 24 godziny)

TLE

ŚwieżeSource: CelesTrak SupGP

Epoka: Sep 14, 2026, 22:32 UTC

1 62067C 24217L   26257.93937500  .00046234  00000+0  38058-3 0  2577
2 62067  53.1574 218.6775 0001325  93.7407 224.5172 15.69702869    12

Śledź STARLINK-11472 w czasie rzeczywistym z AllMySat

Download on the App Store